Location: Ferchesar
(52.6477°N, 12.4298°E)
Time: 17:00:09
(UTC+01:00)

Envisat - Pass Details

Date: 11 October 2022
Orbit: 763 x 765 km, 98.2° (Epoch: 30 November)

Event Time Altitude Azimuth Distance (km) Brightness Sun altitude
Rises 05:56:52 0° 13° (NNE) 3,247 6.5 -14.7°
Reaches altitude 10° 05:59:11 10° 12° (NNE) 2,316 5.7 -14.3°
Maximum altitude 06:04:17 77° 288° (WNW) 793 2.9 -13.6°
Drops below altitude 10° 06:09:20 10° 203° (SSW) 2,298 5.2 -12.8°
Sets 06:11:38 0° 202° (SSW) 3,220 6.0 -12.5°
